Weather History for Resia Pass, Italy

Change the Weather History Date:

Monday, July 29, 2013

  Actual Average Record
Temperature  
Mean Temperature 58 °F -  
Max Temperature 64 °F 68 °F 77 °F (2004)
Min Temperature 53 °F 49 °F 42 °F (2000)
Degree Days  
Heating Degree Days 6    
Growing Degree Days 8 (Base 50)    
Moisture  
Dew Point 50 °F    
Average Humidity 76    
Maximum Humidity 88    
Minimum Humidity 52    
Precipitation  
Precipitation 0.00 in - - ()
Sea Level Pressure  
Sea Level Pressure 30.14 in    
Wind  
Wind Speed 5 mph ()    
Max Wind Speed 10 mph    
Max Gust Speed 24 mph    
Visibility 6.2 miles    
Events Rain    
Averages and records for this station are not official NWS values.
T = Trace of Precipitation, MM = Missing Value Source: Averaged Metar Reports

Daily Weather History Graph

Daily Weather History Graph

Search for Another Location

Airport:

Trip Planner

Search our weather history database for the weather conditions in past years. The results will help you decide how hot, cold, wet, or windy it might be!

Date:

Astronomy

Jul. 29, 2013 Rise Set
Actual Time 5:54 AM CEST 8:53 PM CEST
Civil Twilight 5:18 AM CEST 9:29 PM CEST
Nautical Twilight 4:32 AM CEST 10:15 PM CEST
Astronomical Twilight 3:36 AM CEST 11:10 PM CEST
Moon No Moon Rise 1:52 PM CEST
Length of Visible Light 16h 11m
Length of Day
14h 59m
Waning Gibbous, 53% of the Moon is Illuminated
Jul 29
Waning Gibbous
Jul 29
Last Quarter
Aug 6
New
Aug 14
First Quarter
Aug 21
Full

Hourly Weather History & Observations

Time (CEST) Temp. Dew Point Humidity Pressure Visibility Wind Dir Wind Speed Gust Speed Precip Events Conditions
12:55 AM 64.4 °F 48.2 °F 56% 30.18 in - SSE 3.5 mph - N/A   Clear
1:55 AM 64.4 °F 46.4 °F 52% 30.21 in - South 4.6 mph - N/A   Clear
7:55 AM 60.8 °F 53.6 °F 77% 30.15 in 6.2 mi ESE 4.6 mph - N/A   Partly Cloudy
8:55 AM 60.8 °F 53.6 °F 77% 30.15 in 6.2 mi SE 4.6 mph - N/A   Partly Cloudy
9:55 AM 62.6 °F 53.6 °F 72% 30.15 in 6.2 mi SE 10.4 mph - N/A   Mostly Cloudy
10:55 AM 62.6 °F 53.6 °F 72% 30.15 in 6.2 mi South 6.9 mph - N/A Rain Light Rain
11:55 AM 60.8 °F 57.2 °F 88% 30.12 in 6.2 mi South 5.8 mph - N/A   Mostly Cloudy
12:55 PM 59.0 °F 55.4 °F 88% 30.12 in 6.2 mi SE 8.1 mph - N/A Rain Rain
1:55 PM 57.2 °F 53.6 °F 88% 30.15 in 6.2 mi South 10.4 mph - N/A Rain Heavy Rain
2:55 PM 57.2 °F 51.8 °F 82% 30.09 in 6.2 mi South 10.4 mph 23.0 mph N/A   Mostly Cloudy
3:55 PM 57.2 °F 53.6 °F 88% 30.09 in 6.2 mi SSE 6.9 mph - N/A   Mostly Cloudy
4:55 PM 57.2 °F 51.8 °F 82% 30.09 in 6.2 mi SE 5.8 mph - N/A   Mostly Cloudy
5:55 PM 57.2 °F 50.0 °F 77% 30.09 in 6.2 mi SSW 5.8 mph - N/A   Mostly Cloudy
6:55 PM 55.4 °F 46.4 °F 72% 30.09 in 6.2 mi NE 8.1 mph 24.2 mph N/A   Mostly Cloudy
7:55 PM 53.6 °F 44.6 °F 72% 30.12 in 6.2 mi North 10.4 mph 24.2 mph N/A Rain Light Rain
8:55 PM 53.6 °F 46.4 °F 77% 30.15 in 6.2 mi NNE 4.6 mph - N/A   Mostly Cloudy
9:55 PM 53.6 °F 46.4 °F 77% 30.15 in 6.2 mi NNE 4.6 mph - N/A   Mostly Cloudy
10:55 PM 53.6 °F 42.8 °F 67% 30.18 in 6.2 mi North 5.8 mph - N/A   Mostly Cloudy
11:55 PM 53.6 °F 44.6 °F 72% 30.18 in 6.2 mi NE 4.6 mph - N/A   Mostly Cloudy